Orbital Elements at Epoch 2459200.5 (2020-Dec-17.0) TDB
Reference: JPL 24 (heliocentric ecliptic J2000)
Element | Value | Uncertainty (1-sigma) | Units |
e | .1828382109427289 | 5.0509e-08 | |
a | 2.607846758413528 | 1.4441e-08 | au |
q | 2.131032722692404 | 1.297e-07 | au |
i | 14.07995867425095 | 5.438e-06 | deg |
node | 64.10304734932122 | 1.6302e-05 | deg |
peri | 338.4630306329761 | 2.033e-05 | deg |
M | 100.7159580523372 | 1.04e-05 | deg |
tp | 2458770.154450234672 (2019-Oct-13.65445023) | 4.4768e-05 | TDB |
period | 1538.230891225911 4.21 | 1.2777e-05 3.498e-08 | d yr |
n | .2340350867047623 | 1.9439e-09 | deg/d |
Q | 3.084660794134652 | 1.7081e-08 | au |
|
| | Orbit Determination Parameters
Additional Information
|